time, Switch, Flow(0), Analog(2)
yyyy/mm/dd HH:MM:SS.fff, True=FILTERED|False=TOTAL, L/min, V
2023/06/24 17:00:04.358, True, 2.653, 0.119707
2023/06/24 17:00:04.862, True, 2.321, 0.122301
2023/06/24 17:00:05.358, True, 1.685, 0.121462
2023/06/24 17:00:05.862, True, 1.990, 0.121462
2023/06/24 17:00:06.366, True, 1.990, 0.120546
2023/06/24 17:00:06.862, True, 1.685, 0.121462
2023/06/24 17:00:07.366, True, 1.990, 0.119707
2023/06/24 17:00:07.870, True, 1.990, 0.124971
2023/06/24 17:00:08.366, True, 1.685, 0.122911
2023/06/24 17:00:08.870, True, 1.991, 0.120394
2023/06/24 17:00:09.374, True, 1.991, 0.120546
2023/06/24 17:00:09.870, True, 2.023, 0.120394
2023/06/24 17:00:10.374, True, 1.656, 0.121080
2023/06/24 17:00:10.878, True, 1.988, 0.123445
2023/06/24 17:00:11.382, True, 1.659, 0.120394
2023/06/24 17:00:11.878, True, 1.684, 0.121767
2023/06/24 17:00:12.382, True, 1.991, 0.123217
2023/06/24 17:00:12.886, True, 1.989, 0.122377
2023/06/24 17:00:13.382, True, 2.022, 0.121004
2023/06/24 17:00:13.886, True, 1.988, 0.121386
2023/06/24 17:00:14.390, True, 1.991, 0.120851
2023/06/24 17:00:14.886, True, 1.685, 0.120775
2023/06/24 17:00:15.390, True, 1.990, 0.119860
2023/06/24 17:00:15.894, True, 1.990, 0.121767
2023/06/24 17:00:16.390, True, 2.022, 0.120089
2023/06/24 17:00:16.894, True, 1.657, 0.121157
2023/06/24 17:00:17.398, True, 1.991, 0.122683
2023/06/24 17:00:17.894, True, 1.685, 0.121996
2023/06/24 17:00:18.397, True, 1.988, 0.121920
2023/06/24 17:00:18.902, True, 1.992, 0.123674
2023/06/24 17:00:19.398, True, 1.685, 0.122225
2023/06/24 17:00:19.902, True, 1.987, 0.121157
2023/06/24 17:00:20.406, True, 1.990, 0.121462
2023/06/24 17:00:20.902, True, 1.687, 0.120089
2023/06/24 17:00:21.406, True, 1.987, 0.121462
2023/06/24 17:00:21.910, True, 1.990, 0.121157
2023/06/24 17:00:22.406, True, 2.023, 0.121157
2023/06/24 17:00:22.910, True, 1.657, 0.120165
2023/06/24 17:00:23.414, True, 1.990, 0.120775
2023/06/24 17:00:23.910, True, 1.685, 0.121386
2023/06/24 17:00:24.414, True, 1.658, 0.123293
2023/06/24 17:00:24.910, True, 2.022, 0.121157
2023/06/24 17:00:25.414, True, 1.990, 0.121080
2023/06/24 17:00:25.918, True, 1.991, 0.119783
2023/06/24 17:00:26.414, True, 1.683, 0.120089
2023/06/24 17:00:26.918, True, 1.990, 0.120623
2023/06/24 17:00:27.422, True, 1.989, 0.120546
2023/06/24 17:00:27.918, True, 2.022, 0.123598
2023/06/24 17:00:28.422, True, 1.658, 0.121157
2023/06/24 17:00:28.926, True, 1.990, 0.121157
2023/06/24 17:00:29.422, True, 1.686, 0.120165
2023/06/24 17:00:29.926, True, 1.657, 0.121996
2023/06/24 17:00:30.430, True, 1.990, 0.121996
2023/06/24 17:00:30.926, True, 1.685, 0.123751
2023/06/24 17:00:31.430, True, 1.658, 0.121157
2023/06/24 17:00:31.934, True, 1.990, 0.122683
2023/06/24 17:00:32.430, True, 2.022, 0.121538
2023/06/24 17:00:32.934, True, 1.990, 0.122072
2023/06/24 17:00:33.430, True, 2.022, 0.123903
2023/06/24 17:00:33.934, True, 1.658, 0.121080
2023/06/24 17:00:34.438, True, 2.323, 0.121614
2023/06/24 17:00:34.942, True, 1.988, 0.119707
2023/06/24 17:00:35.438, True, 1.685, 0.122759
2023/06/24 17:00:35.942, True, 1.990, 0.121157
2023/06/24 17:00:36.446, True, 1.990, 0.119020
2023/06/24 17:00:36.942, True, 1.685, 0.122377
2023/06/24 17:00:37.446, True, 1.990, 0.123064
2023/06/24 17:00:37.950, True, 1.990, 0.125048
2023/06/24 17:00:38.454, True, 1.658, 0.124208
2023/06/24 17:00:38.950, True, 2.022, 0.123064
2023/06/24 17:00:39.454, True, 1.990, 0.122606
2023/06/24 17:00:39.958, True, 1.990, 0.124895
2023/06/24 17:00:40.454, True, 1.687, 0.124437
2023/06/24 17:00:40.958, True, 1.987, 0.127108
2023/06/24 17:00:41.462, True, 1.990, 0.125124
2023/06/24 17:00:41.966, True, 1.990, 0.127031
2023/06/24 17:00:42.462, True, 1.685, 0.126345
2023/06/24 17:00:42.966, True, 1.990, 0.128634
2023/06/24 17:00:43.462, True, 2.022, 0.128557
2023/06/24 17:00:43.967, True, 1.658, 0.128786
2023/06/24 17:00:44.470, True, 1.990, 0.130617
2023/06/24 17:00:44.966, True, 2.022, 0.129091
2023/06/24 17:00:45.470, True, 1.658, 0.130312
2023/06/24 17:00:45.974, True, 1.989, 0.130541
2023/06/24 17:00:46.470, True, 2.022, 0.128481
2023/06/24 17:00:46.974, True, 1.990, 0.131533
2023/06/24 17:00:47.478, True, 1.990, 0.131075
2023/06/24 17:00:47.982, True, 1.658, 0.132677
2023/06/24 17:00:48.478, True, 2.022, 0.130770
2023/06/24 17:00:48.982, True, 1.658, 0.130312
2023/06/24 17:00:49.478, True, 2.023, 0.130922
2023/06/24 17:00:49.982, True, 1.988, 0.131075
2023/06/24 17:00:50.486, True, 1.990, 0.130007
2023/06/24 17:00:50.990, True, 1.658, 0.130312
2023/06/24 17:00:51.486, True, 2.022, 0.130694
2023/06/24 17:00:51.990, True, 1.990, 0.132906
2023/06/24 17:00:52.494, True, 1.990, 0.132830
2023/06/24 17:00:52.990, True, 2.022, 0.132525
2023/06/24 17:00:53.494, True, 1.658, 0.130770
2023/06/24 17:00:53.998, True, 1.990, 0.131151
2023/06/24 17:00:54.502, True, 1.992, 0.130846
2023/06/24 17:00:54.998, True, 1.685, 0.132372
2023/06/24 17:00:55.502, True, 1.987, 0.132219
2023/06/24 17:00:55.997, True, 2.022, 0.133898
2023/06/24 17:00:56.502, True, 1.993, 0.131838
2023/06/24 17:00:57.006, True, 1.989, 0.131456
2023/06/24 17:00:57.502, True, 1.684, 0.133745
2023/06/24 17:00:58.006, True, 1.988, 0.132830
2023/06/24 17:00:58.510, True, 1.992, 0.134813
2023/06/24 17:00:59.014, True, 1.656, 0.133669
2023/06/24 17:00:59.510, True, 2.024, 0.132830
2023/06/24 17:01:00.014, True, 1.656, 0.133059
2023/06/24 17:01:00.510, True, 2.020, 0.131228
2023/06/24 17:01:01.014, True, 1.990, 0.134279
2023/06/24 17:01:01.518, True, 1.989, 0.132906
2023/06/24 17:01:02.022, True, 1.992, 0.131685
2023/06/24 17:01:02.518, True, 1.685, 0.134127
2023/06/24 17:01:03.022, True, 1.987, 0.133898
2023/06/24 17:01:03.526, True, 1.991, 0.133288
2023/06/24 17:01:04.030, True, 1.988, 0.132906
2023/06/24 17:01:04.526, True, 1.685, 0.132448
2023/06/24 17:01:05.030, True, 1.990, 0.133974
2023/06/24 17:01:05.526, True, 1.688, 0.133669
2023/06/24 17:01:06.029, True, 1.986, 0.132601
2023/06/24 17:01:06.534, True, 1.990, 0.134356
2023/06/24 17:01:07.038, True, 1.658, 0.135195
2023/06/24 17:01:07.534, True, 1.686, 0.133135
2023/06/24 17:01:08.038, True, 1.988, 0.135119
2023/06/24 17:01:08.534, True, 2.022, 0.134661
2023/06/24 17:01:09.038, True, 1.989, 0.133440
2023/06/24 17:01:09.542, True, 1.658, 0.135424
2023/06/24 17:01:10.038, True, 2.023, 0.133364
2023/06/24 17:01:10.542, True, 1.988, 0.134432
2023/06/24 17:01:11.046, True, 1.658, 0.133898
2023/06/24 17:01:11.542, True, 2.022, 0.137942
2023/06/24 17:01:12.046, True, 1.990, 0.133211
2023/06/24 17:01:12.550, True, 1.991, 0.133822
2023/06/24 17:01:13.046, True, 1.686, 0.134356
2023/06/24 17:01:13.549, True, 1.988, 0.134203
2023/06/24 17:01:14.054, True, 1.988, 0.134203
2023/06/24 17:01:14.550, True, 1.685, 0.132601
2023/06/24 17:01:15.054, True, 1.989, 0.135958
2023/06/24 17:01:15.558, True, 1.990, 0.133211
2023/06/24 17:01:16.062, True, 1.992, 0.132448
2023/06/24 17:01:16.558, True, 2.020, 0.132525
2023/06/24 17:01:17.062, True, 1.990, 0.134356
2023/06/24 17:01:17.558, True, 1.685, 0.133211
2023/06/24 17:01:18.062, True, 1.990, 0.133822
2023/06/24 17:01:18.566, True, 1.991, 0.132067
2023/06/24 17:01:19.062, True, 1.683, 0.136950
2023/06/24 17:01:19.566, True, 1.990, 0.131228
2023/06/24 17:01:20.070, True, 1.990, 0.134890
2023/06/24 17:01:20.566, True, 1.685, 0.134737
2023/06/24 17:01:21.070, True, 1.990, 0.133745
2023/06/24 17:01:21.574, True, 1.990, 0.133440
2023/06/24 17:01:22.070, True, 1.685, 0.133059
2023/06/24 17:01:22.574, True, 1.990, 0.132525
2023/06/24 17:01:23.078, True, 1.989, 0.133364
2023/06/24 17:01:23.574, True, 2.022, 0.132677
2023/06/24 17:01:24.078, True, 1.990, 0.132982
2023/06/24 17:01:24.582, True, 1.658, 0.132982
2023/06/24 17:01:25.078, True, 2.022, 0.135042
2023/06/24 17:01:25.582, True, 1.990, 0.133440
2023/06/24 17:01:26.086, True, 1.990, 0.132296
2023/06/24 17:01:26.582, True, 1.685, 0.133745
2023/06/24 17:01:27.086, True, 1.990, 0.132677
2023/06/24 17:01:27.590, True, 1.658, 0.134737
2023/06/24 17:01:28.086, True, 2.022, 0.132906
2023/06/24 17:01:28.590, True, 1.990, 0.134203
2023/06/24 17:01:29.094, True, 1.989, 0.129091
2023/06/24 17:01:29.590, True, 1.686, 0.133822
2023/06/24 17:01:30.094, True, 1.988, 0.132372
2023/06/24 17:01:30.598, True, 1.990, 0.132906
2023/06/24 17:01:31.094, True, 1.685, 0.133288
2023/06/24 17:01:31.598, True, 1.990, 0.132601
2023/06/24 17:01:32.094, True, 1.685, 0.132982
2023/06/24 17:01:32.598, True, 1.990, 0.133669
2023/06/24 17:01:33.102, True, 1.990, 0.134051
2023/06/24 17:01:33.598, True, 1.685, 0.132296
2023/06/24 17:01:34.102, True, 1.990, 0.133974
2023/06/24 17:01:34.606, True, 1.658, 0.131380
2023/06/24 17:01:35.102, True, 2.021, 0.130541
2023/06/24 17:01:35.606, True, 1.661, 0.129702
2023/06/24 17:01:36.110, True, 1.986, 0.131838
2023/06/24 17:01:36.606, True, 1.685, 0.132601
2023/06/24 17:01:37.110, True, 1.658, 0.131991
2023/06/24 17:01:37.614, True, 1.990, 0.133135
2023/06/24 17:01:38.110, True, 1.685, 0.132372
2023/06/24 17:01:38.614, True, 1.990, 0.132067
2023/06/24 17:01:39.118, True, 1.658, 0.131914
2023/06/24 17:01:39.614, True, 1.685, 0.132448
2023/06/24 17:01:40.118, True, 1.991, 0.130922
2023/06/24 17:01:40.614, True, 1.684, 0.131762
2023/06/24 17:01:41.118, True, 1.990, 0.134279
2023/06/24 17:01:41.622, True, 1.990, 0.132067
2023/06/24 17:01:42.118, True, 2.022, 0.131762
2023/06/24 17:01:42.622, True, 1.990, 0.132677
2023/06/24 17:01:43.126, True, 1.993, 0.131762
2023/06/24 17:01:43.630, True, 1.986, 0.131991
2023/06/24 17:01:44.126, True, 1.685, 0.132982
2023/06/24 17:01:44.630, True, 1.992, 0.132067
2023/06/24 17:01:45.134, True, 1.656, 0.130846
2023/06/24 17:01:45.630, True, 2.022, 0.132601
2023/06/24 17:01:46.134, True, 1.660, 0.133516
2023/06/24 17:01:46.638, True, 1.986, 0.130083
2023/06/24 17:01:47.134, True, 1.685, 0.132753
2023/06/24 17:01:47.638, True, 1.990, 0.132906
2023/06/24 17:01:48.142, True, 1.658, 0.132982
2023/06/24 17:01:48.638, True, 1.685, 0.132067
2023/06/24 17:01:49.142, True, 1.990, 0.132372
2023/06/24 17:01:49.638, True, 2.022, 0.131838
2023/06/24 17:01:50.142, True, 1.989, 0.130388
2023/06/24 17:01:50.646, True, 1.990, 0.131838
2023/06/24 17:01:51.142, True, 2.023, 0.131685
2023/06/24 17:01:51.646, True, 1.657, 0.129931
2023/06/24 17:01:52.150, True, 1.990, 0.132982
2023/06/24 17:01:52.646, True, 2.022, 0.131991
2023/06/24 17:01:53.150, True, 1.990, 0.132067
2023/06/24 17:01:53.654, True, 1.991, 0.131914
2023/06/24 17:01:54.150, True, 1.684, 0.131685
2023/06/24 17:01:54.654, True, 1.990, 0.130388
2023/06/24 17:01:55.158, True, 1.990, 0.132143
2023/06/24 17:01:55.654, True, 2.022, 0.131533
2023/06/24 17:01:56.158, True, 1.993, 0.131380
2023/06/24 17:01:56.661, True, 1.986, 0.131533
2023/06/24 17:01:57.166, True, 1.990, 0.130922
2023/06/24 17:01:57.662, True, 1.685, 0.130159
2023/06/24 17:01:58.166, True, 1.990, 0.130541
2023/06/24 17:01:58.662, True, 2.022, 0.130770
2023/06/24 17:01:59.166, True, 1.990, 0.132143
2023/06/24 17:01:59.670, True, 1.990, 0.131456
2023/06/24 17:02:00.166, True, 2.022, 0.130236
2023/06/24 17:02:00.670, True, 1.658, 0.132219
2023/06/24 17:02:01.174, True, 1.990, 0.130312
2023/06/24 17:02:01.670, True, 2.021, 0.132677
2023/06/24 17:02:02.174, True, 1.992, 0.131151
2023/06/24 17:02:02.678, True, 1.987, 0.131151
2023/06/24 17:02:03.174, True, 2.022, 0.128862
2023/06/24 17:02:03.678, True, 1.989, 0.131075
2023/06/24 17:02:04.174, True, 1.685, 0.131762
2023/06/24 17:02:04.678, True, 1.989, 0.128939
2023/06/24 17:02:05.182, True, 1.990, 0.127871
2023/06/24 17:02:05.678, True, 1.685, 0.130388
2023/06/24 17:02:06.182, True, 1.990, 0.131151
2023/06/24 17:02:06.686, True, 1.989, 0.132067
2023/06/24 17:02:07.182, True, 2.025, 0.130922
2023/06/24 17:02:07.686, True, 1.986, 0.131914
2023/06/24 17:02:08.190, True, 1.990, 0.130388
2023/06/24 17:02:08.694, True, 1.658, 0.130541
2023/06/24 17:02:09.190, True, 2.024, 0.130694
2023/06/24 17:02:09.694, True, 1.988, 0.131914
2023/06/24 17:02:10.190, True, 1.685, 0.130083
2023/06/24 17:02:10.694, True, 1.990, 0.130922
2023/06/24 17:02:11.198, True, 1.990, 0.130465
2023/06/24 17:02:11.702, True, 1.658, 0.131914
2023/06/24 17:02:12.198, True, 2.022, 0.132677
2023/06/24 17:02:12.702, True, 1.990, 0.129931
2023/06/24 17:02:13.198, True, 1.685, 0.130083
2023/06/24 17:02:13.702, True, 1.990, 0.129778
2023/06/24 17:02:14.206, True, 1.990, 0.131380
2023/06/24 17:02:14.710, True, 1.991, 0.130922
2023/06/24 17:02:15.206, True, 1.683, 0.130465
2023/06/24 17:02:15.710, True, 1.989, 0.130999
2023/06/24 17:02:16.214, True, 1.660, 0.129549
2023/06/24 17:02:16.710, True, 2.020, 0.129931
2023/06/24 17:02:17.214, True, 1.989, 0.131609
2023/06/24 17:02:17.718, True, 1.990, 0.130922
2023/06/24 17:02:18.214, True, 2.022, 0.129931
2023/06/24 17:02:18.718, True, 1.658, 0.130694
2023/06/24 17:02:19.222, True, 1.990, 0.129397
2023/06/24 17:02:19.718, True, 1.685, 0.127794
2023/06/24 17:02:20.222, True, 1.990, 0.130922
2023/06/24 17:02:20.726, True, 1.658, 0.131456
2023/06/24 17:02:21.222, True, 2.021, 0.130388
2023/06/24 17:02:21.726, True, 1.990, 0.127413
2023/06/24 17:02:22.230, True, 1.990, 0.128557
2023/06/24 17:02:22.726, True, 2.022, 0.129015
2023/06/24 17:02:23.230, True, 1.990, 0.128939
2023/06/24 17:02:23.734, True, 1.990, 0.127108
2023/06/24 17:02:24.230, True, 1.685, 0.127642
2023/06/24 17:02:24.734, True, 1.990, 0.130846
2023/06/24 17:02:25.238, True, 1.990, 0.130770
2023/06/24 17:02:25.734, True, 2.022, 0.129854
2023/06/24 17:02:26.238, True, 1.658, 0.128328
2023/06/24 17:02:26.734, True, 2.021, 0.131380
2023/06/24 17:02:27.238, True, 1.990, 0.127871
2023/06/24 17:02:27.742, True, 1.990, 0.130541
2023/06/24 17:02:28.238, True, 1.685, 0.129397
2023/06/24 17:02:28.742, True, 1.989, 0.129549
2023/06/24 17:02:29.246, True, 1.990, 0.129320
2023/06/24 17:02:29.742, True, 2.022, 0.130770
2023/06/24 17:02:30.246, True, 1.989, 0.128710
2023/06/24 17:02:30.750, True, 1.658, 0.128634
2023/06/24 17:02:31.246, True, 2.022, 0.129778
2023/06/24 17:02:31.750, True, 1.988, 0.129015
2023/06/24 17:02:32.253, True, 1.659, 0.126421
2023/06/24 17:02:32.750, True, 2.022, 0.128328
2023/06/24 17:02:33.254, True, 1.990, 0.129244
2023/06/24 17:02:33.758, True, 1.658, 0.130007
2023/06/24 17:02:34.254, True, 2.022, 0.128634
2023/06/24 17:02:34.758, True, 1.990, 0.129854
2023/06/24 17:02:35.262, True, 1.990, 0.128405
2023/06/24 17:02:35.758, True, 1.683, 0.127947
2023/06/24 17:02:36.262, True, 1.992, 0.127413
2023/06/24 17:02:36.766, True, 1.990, 0.128023
2023/06/24 17:02:37.270, True, 1.990, 0.129168
2023/06/24 17:02:37.766, True, 1.683, 0.126192
2023/06/24 17:02:38.270, True, 1.991, 0.128252
2023/06/24 17:02:38.774, True, 1.987, 0.129397
2023/06/24 17:02:39.270, True, 1.685, 0.130159
2023/06/24 17:02:39.774, True, 1.658, 0.128557
2023/06/24 17:02:40.278, True, 1.990, 0.130388
2023/06/24 17:02:40.774, True, 1.685, 0.129320
2023/06/24 17:02:41.278, True, 1.658, 0.130083
2023/06/24 17:02:41.782, True, 1.990, 0.127108
2023/06/24 17:02:42.278, True, 1.688, 0.128557
2023/06/24 17:02:42.782, True, 1.987, 0.129549
2023/06/24 17:02:43.286, True, 1.989, 0.128023
2023/06/24 17:02:43.782, True, 2.022, 0.128557
2023/06/24 17:02:44.286, True, 1.658, 0.129320
2023/06/24 17:02:44.790, True, 1.990, 0.128328
2023/06/24 17:02:45.286, True, 2.022, 0.128557
2023/06/24 17:02:45.790, True, 1.658, 0.129320
2023/06/24 17:02:46.286, True, 2.022, 0.128176
2023/06/24 17:02:46.790, True, 1.658, 0.127947
2023/06/24 17:02:47.294, True, 1.990, 0.130465
2023/06/24 17:02:47.790, True, 1.686, 0.128405
2023/06/24 17:02:48.294, True, 1.988, 0.127794
2023/06/24 17:02:48.798, True, 1.991, 0.127947
2023/06/24 17:02:49.294, True, 1.683, 0.128252
2023/06/24 17:02:49.798, True, 1.990, 0.128023
2023/06/24 17:02:50.302, True, 1.990, 0.129549
2023/06/24 17:02:50.798, True, 1.685, 0.129625
2023/06/24 17:02:51.302, True, 1.990, 0.127413
2023/06/24 17:02:51.806, True, 1.992, 0.126802
2023/06/24 17:02:52.302, True, 2.020, 0.127031
2023/06/24 17:02:52.806, True, 1.658, 0.129015
2023/06/24 17:02:53.302, True, 2.022, 0.127642
2023/06/24 17:02:53.806, True, 1.990, 0.127794
2023/06/24 17:02:54.310, True, 1.658, 0.129931
2023/06/24 17:02:54.806, True, 2.022, 0.128405
2023/06/24 17:02:55.310, True, 1.989, 0.128557
2023/06/24 17:02:55.814, True, 1.990, 0.129168
2023/06/24 17:02:56.310, True, 2.022, 0.127794
2023/06/24 17:02:56.814, True, 1.993, 0.127565
2023/06/24 17:02:57.318, True, 1.987, 0.127565
2023/06/24 17:02:57.814, True, 1.685, 0.126726
2023/06/24 17:02:58.318, True, 1.990, 0.127489
2023/06/24 17:02:58.814, True, 2.022, 0.128252
2023/06/24 17:02:59.318, True, 1.990, 0.130236
2023/06/24 17:02:59.822, True, 1.990, 0.128099
2023/06/24 17:03:00.318, True, 1.685, 0.127489
2023/06/24 17:03:00.822, True, 1.990, 0.127871
2023/06/24 17:03:01.325, True, 1.992, 0.129244
2023/06/24 17:03:01.822, True, 2.019, 0.128405
2023/06/24 17:03:02.326, True, 1.990, 0.129397
2023/06/24 17:03:02.830, True, 1.990, 0.126497
2023/06/24 17:03:03.326, True, 2.022, 0.128405
2023/06/24 17:03:03.830, True, 1.990, 0.127794
2023/06/24 17:03:04.334, True, 1.658, 0.128710
2023/06/24 17:03:04.838, True, 1.990, 0.130312
2023/06/24 17:03:05.334, True, 2.022, 0.127260
2023/06/24 17:03:05.838, True, 1.661, 0.127642
2023/06/24 17:03:06.342, True, 1.986, 0.128328
2023/06/24 17:03:06.846, True, 1.990, 0.129320
2023/06/24 17:03:07.342, True, 1.685, 0.125200
2023/06/24 17:03:07.846, True, 1.989, 0.126192
2023/06/24 17:03:08.350, True, 1.990, 0.127337
2023/06/24 17:03:08.846, True, 2.022, 0.125582
2023/06/24 17:03:09.350, True, 1.658, 0.127413
2023/06/24 17:03:09.854, True, 1.993, 0.126497
2023/06/24 17:03:10.350, True, 2.021, 0.129168
2023/06/24 17:03:10.854, True, 1.987, 0.125734
2023/06/24 17:03:11.358, True, 1.990, 0.128405
2023/06/24 17:03:11.854, True, 1.684, 0.126879
2023/06/24 17:03:12.358, True, 1.990, 0.126650
2023/06/24 17:03:12.862, True, 1.990, 0.127489
2023/06/24 17:03:13.358, True, 1.685, 0.129549
2023/06/24 17:03:13.862, True, 1.990, 0.126955
2023/06/24 17:03:14.366, True, 1.658, 0.128481
2023/06/24 17:03:14.862, True, 2.023, 0.125429
2023/06/24 17:03:15.366, True, 1.656, 0.127489
2023/06/24 17:03:15.870, True, 1.990, 0.126574
2023/06/24 17:03:16.366, True, 2.022, 0.129473
2023/06/24 17:03:16.870, True, 1.658, 0.126192
2023/06/24 17:03:17.374, True, 1.990, 0.125734
2023/06/24 17:03:17.870, True, 2.022, 0.127031
2023/06/24 17:03:18.374, True, 1.990, 0.126345
2023/06/24 17:03:18.878, True, 1.990, 0.127413
2023/06/24 17:03:19.374, True, 1.685, 0.128023
2023/06/24 17:03:19.878, True, 1.658, 0.127108
2023/06/24 17:03:20.382, True, 1.990, 0.128099
2023/06/24 17:03:20.878, True, 1.685, 0.128786
2023/06/24 17:03:21.382, True, 1.990, 0.128481
2023/06/24 17:03:21.886, True, 1.990, 0.127108
2023/06/24 17:03:22.382, True, 2.022, 0.128252
2023/06/24 17:03:22.886, True, 1.990, 0.125582
2023/06/24 17:03:23.390, True, 1.658, 0.127871
2023/06/24 17:03:23.886, True, 2.022, 0.126345
2023/06/24 17:03:24.390, True, 1.990, 0.127184
2023/06/24 17:03:24.894, True, 1.658, 0.129091
2023/06/24 17:03:25.390, True, 2.022, 0.127565
2023/06/24 17:03:25.894, True, 1.989, 0.128099
2023/06/24 17:03:26.398, True, 1.658, 0.127642
2023/06/24 17:03:26.894, True, 2.023, 0.126802
2023/06/24 17:03:27.398, True, 1.988, 0.127413
2023/06/24 17:03:27.902, True, 1.658, 0.124361
2023/06/24 17:03:28.406, True, 1.992, 0.125582
2023/06/24 17:03:28.902, True, 1.683, 0.125582
2023/06/24 17:03:29.406, True, 1.990, 0.127871
2023/06/24 17:03:29.902, True, 1.685, 0.125429
2023/06/24 17:03:30.406, True, 1.990, 0.126650
2023/06/24 17:03:30.910, True, 1.990, 0.125811
2023/06/24 17:03:31.406, True, 1.685, 0.125734
2023/06/24 17:03:31.910, True, 1.989, 0.127794
2023/06/24 17:03:32.414, True, 1.990, 0.125811
2023/06/24 17:03:32.910, True, 2.025, 0.124971
2023/06/24 17:03:33.414, True, 1.986, 0.126726
2023/06/24 17:03:33.918, True, 1.990, 0.126497
2023/06/24 17:03:34.414, True, 2.022, 0.124361
2023/06/24 17:03:34.918, True, 1.658, 0.126650
2023/06/24 17:03:35.421, True, 1.989, 0.127565
2023/06/24 17:03:35.918, True, 2.025, 0.127947
2023/06/24 17:03:36.421, True, 1.655, 0.127947
2023/06/24 17:03:36.918, True, 2.021, 0.125658
2023/06/24 17:03:37.422, True, 1.991, 0.128405
2023/06/24 17:03:37.926, True, 1.989, 0.127794
2023/06/24 17:03:38.429, True, 1.659, 0.127260
2023/06/24 17:03:38.926, True, 2.021, 0.125811
2023/06/24 17:03:39.430, True, 1.990, 0.126726
2023/06/24 17:03:39.933, True, 1.658, 0.126040
2023/06/24 17:03:40.429, True, 2.022, 0.125582
2023/06/24 17:03:40.934, True, 1.658, 0.127413
2023/06/24 17:03:41.438, True, 1.990, 0.127718
2023/06/24 17:03:41.934, True, 2.022, 0.124666
2023/06/24 17:03:42.438, True, 1.990, 0.128786
2023/06/24 17:03:42.934, True, 1.685, 0.129168
2023/06/24 17:03:43.438, True, 1.990, 0.128710
2023/06/24 17:03:43.942, True, 1.989, 0.127413
2023/06/24 17:03:44.446, True, 1.990, 0.126268
2023/06/24 17:03:44.942, True, 1.685, 0.124743
2023/06/24 17:03:45.446, True, 1.992, 0.127565
2023/06/24 17:03:45.950, True, 1.987, 0.128023
2023/06/24 17:03:46.454, True, 1.990, 0.124361
2023/06/24 17:03:46.950, True, 1.685, 0.126879
2023/06/24 17:03:47.454, True, 1.990, 0.126802
2023/06/24 17:03:47.957, True, 1.990, 0.125124
2023/06/24 17:03:48.454, True, 1.685, 0.127642
2023/06/24 17:03:48.958, True, 1.991, 0.125200
2023/06/24 17:03:49.462, True, 1.657, 0.127642
2023/06/24 17:03:49.958, True, 2.024, 0.125048
2023/06/24 17:03:50.462, True, 1.656, 0.127489
2023/06/24 17:03:50.966, True, 1.989, 0.128176
2023/06/24 17:03:51.462, True, 2.025, 0.127947
2023/06/24 17:03:51.966, True, 1.655, 0.126650
2023/06/24 17:03:52.470, True, 1.989, 0.126421
2023/06/24 17:03:52.966, True, 1.685, 0.125658
2023/06/24 17:03:53.470, True, 1.990, 0.124208
2023/06/24 17:03:53.974, True, 1.989, 0.126726
2023/06/24 17:03:54.470, True, 2.022, 0.123980
2023/06/24 17:03:54.974, True, 1.990, 0.127260
2023/06/24 17:03:55.477, True, 1.658, 0.124971
2023/06/24 17:03:55.974, True, 2.022, 0.126345
2023/06/24 17:03:56.478, True, 1.990, 0.126574
2023/06/24 17:03:56.981, True, 1.989, 0.126497
2023/06/24 17:03:57.478, True, 2.022, 0.125048
2023/06/24 17:03:57.982, True, 1.990, 0.126040
2023/06/24 17:03:58.478, True, 2.022, 0.125963
2023/06/24 17:03:58.982, True, 1.658, 0.126497
2023/06/24 17:03:59.485, True, 1.990, 0.128252
2023/06/24 17:03:59.982, True, 2.022, 0.125277
2023/06/24 17:04:00.486, True, 1.990, 0.126116
2023/06/24 17:04:00.990, True, 1.992, 0.126421
2023/06/24 17:04:01.485, True, 1.683, 0.123903
2023/06/24 17:04:01.990, True, 1.989, 0.124361
2023/06/24 17:04:02.494, True, 1.661, 0.126116
2023/06/24 17:04:02.998, True, 1.986, 0.123980
2023/06/24 17:04:03.494, True, 2.022, 0.126574
2023/06/24 17:04:03.998, True, 1.992, 0.125658
2023/06/24 17:04:04.502, True, 1.990, 0.127108
2023/06/24 17:04:05.006, True, 1.655, 0.122835
2023/06/24 17:04:05.502, True, 2.023, 0.126802
2023/06/24 17:04:06.006, True, 1.660, 0.126802
2023/06/24 17:04:06.510, True, 1.986, 0.125200
2023/06/24 17:04:07.014, True, 1.660, 0.123903
2023/06/24 17:04:07.510, True, 2.024, 0.125353
2023/06/24 17:04:08.014, True, 1.655, 0.125811
2023/06/24 17:04:08.518, True, 1.990, 0.125811
2023/06/24 17:04:09.014, True, 2.022, 0.125658
2023/06/24 17:04:09.517, True, 1.990, 0.124056
2023/06/24 17:04:10.022, True, 1.658, 0.126116
2023/06/24 17:04:10.518, True, 2.022, 0.125963
2023/06/24 17:04:11.022, True, 1.658, 0.126879
2023/06/24 17:04:11.526, True, 1.990, 0.126116
2023/06/24 17:04:12.022, True, 2.022, 0.125887
2023/06/24 17:04:12.526, True, 1.658, 0.126879
2023/06/24 17:04:13.030, True, 1.990, 0.124666
2023/06/24 17:04:13.526, True, 2.022, 0.124819